| time (UTC) | temp F | wind direction | speed MPH | gust MPH | rain 1hr in | rain 24hr in | rain mn in | humidity % | barometer mb |
| 20260509123016 | 59 | 341 | 5.0 | 10.0 | 0.05 | 0.05 | 0.05 | 80 | 1009.9 |
| 20260509122016 | 60 | 281 | 3.0 | 8.0 | 0.00 | 0.00 | 0.00 | 74 | 1009.9 |
| 20260509121016 | 61 | 285 | 3.0 | 7.0 | 0.00 | 0.08 | 0.00 | 73 | 1009.8 |
| 20260509120016 | 60 | 289 | 2.0 | 6.0 | 0.00 | 0.09 | 0.00 | 74 | 1009.8 |
| 20260509115016 | 60 | 304 | 4.0 | 10.0 | 0.00 | 0.09 | 0.00 | 75 | 1009.9 |
| 20260509114016 | 60 | 282 | 4.0 | 7.0 | 0.00 | 0.09 | 0.00 | 75 | 1010.0 |
| 20260509113036 | 60 | 286 | 4.0 | 8.0 | 0.00 | 0.09 | 0.00 | 73 | 1010.0 |
| 20260509112016 | 61 | 273 | 5.0 | 8.0 | 0.00 | 0.09 | 0.00 | 72 | 1010.1 |
| 20260509111056 | 62 | 261 | 4.0 | 8.0 | 0.00 | 0.09 | 0.00 | 69 | 1010.4 |
| 20260509110016 | 62 | 255 | 4.0 | 11.0 | 0.00 | 0.09 | 0.00 | 67 | 1010.3 |
| 20260509105037 | 61 | 267 | 4.0 | 7.0 | 0.00 | 0.09 | 0.00 | 68 | 1010.4 |
| 20260509104016 | 61 | 240 | 1.0 | 6.0 | 0.00 | 0.09 | 0.00 | 69 | 1010.4 |
| 20260509103036 | 61 | 249 | 3.0 | 7.0 | 0.00 | 0.10 | 0.00 | 69 | 1010.4 |
| 20260509102016 | 60 | 255 | 3.0 | 9.0 | 0.00 | 0.11 | 0.00 | 70 | 1010.3 |
| 20260509101036 | 60 | 240 | 4.0 | 10.0 | 0.00 | 0.11 | 0.00 | 70 | 1010.2 |
| 20260509100016 | 60 | 251 | 4.0 | 11.0 | 0.00 | 0.11 | 0.00 | 70 | 1010.1 |
| 20260509095017 | 60 | 235 | 5.0 | 9.0 | 0.00 | 0.11 | 0.00 | 70 | 1010.2 |
| 20260509094016 | 60 | 240 | 2.0 | 6.0 | 0.00 | 0.11 | 0.00 | 72 | 1010.3 |
| 20260509093016 | 59 | 244 | 4.0 | 10.0 | 0.00 | 0.11 | 0.00 | 75 | 1010.2 |
| 20260509092016 | 59 | 253 | 2.0 | 6.0 | 0.00 | 0.11 | 0.00 | 78 | 1010.3 |
| 20260509091016 | 58 | 254 | 2.0 | 5.0 | 0.00 | 0.11 | 0.00 | 80 | 1010.4 |
| 20260509090016 | 59 | 249 | 2.0 | 8.0 | 0.00 | 0.11 | 0.00 | 77 | 1010.5 |
| 20260509085036 | 59 | 231 | 2.0 | 9.0 | 0.00 | 0.11 | 0.00 | 74 | 1010.5 |
| 20260509084017 | 59 | 244 | 3.0 | 6.0 | 0.00 | 0.11 | 0.00 | 75 | 1010.6 |
| 20260509083016 | 59 | 266 | 2.0 | 7.0 | 0.00 | 0.11 | 0.00 | 75 | 1010.6 |
| 20260509082017 | 58 | 243 | 4.0 | 9.0 | 0.00 | 0.11 | 0.00 | 75 | 1010.5 |
| 20260509081016 | 58 | 114 | 2.0 | 7.0 | 0.00 | 0.11 | 0.00 | 76 | 1010.5 |
| 20260509080017 | 57 | 148 | 1.0 | 8.0 | 0.00 | 0.11 | 0.00 | 78 | 1010.4 |
| 20260509075017 | 57 | 106 | 1.0 | 8.0 | 0.00 | 0.11 | 0.00 | 78 | 1010.5 |
| 20260509074016 | 57 | 248 | 1.0 | 5.0 | 0.00 | 0.11 | 0.00 | 80 | 1010.7 |
| 20260509073016 | 56 | 257 | 1.0 | 2.0 | 0.00 | 0.11 | 0.00 | 80 | 1010.5 |
| 20260509072016 | 56 | 257 | 1.0 | 4.0 | 0.00 | 0.11 | 0.00 | 80 | 1010.5 |
| 20260509071017 | 56 | 228 | 0.0 | 4.0 | 0.00 | 0.11 | 0.00 | 80 | 1010.6 |
| 20260509070036 | 56 | 268 | 1.0 | 5.0 | 0.00 | 0.11 | 0.00 | 81 | 1010.7 |
| 20260509065017 | 56 | 267 | 3.0 | 6.0 | 0.00 | 0.11 | 0.00 | 81 | 1011.0 |
| 20260509064017 | 56 | 168 | 2.0 | 5.0 | 0.00 | 0.11 | 0.00 | 80 | 1010.5 |
| 20260509063036 | 56 | 244 | 3.0 | 10.0 | 0.00 | 0.11 | 0.00 | 80 | 1010.7 |
| 20260509062016 | 56 | 235 | 3.0 | 8.0 | 0.00 | 0.11 | 0.00 | 81 | 1010.7 |
| 20260509061017 | 56 | 263 | 3.0 | 7.0 | 0.00 | 0.11 | 0.00 | 81 | 1010.8 |
| 20260509060016 | 56 | 203 | 3.0 | 8.0 | 0.00 | 0.11 | 0.00 | 80 | 1010.5 |
| 20260509055016 | 56 | 120 | 3.0 | 9.0 | 0.00 | 0.11 | 0.00 | 81 | 1010.5 |
| 20260509054016 | 56 | 245 | 3.0 | 10.0 | 0.00 | 0.11 | 0.00 | 81 | 1010.6 |
| 20260509053017 | 55 | 241 | 3.0 | 8.0 | 0.00 | 0.11 | 0.00 | 81 | 1010.6 |
| 20260509052017 | 55 | 100 | 3.0 | 9.0 | 0.00 | 0.11 | 0.00 | 81 | 1010.4 |
| 20260509051016 | 56 | 125 | 6.0 | 12.0 | 0.00 | 0.11 | 0.00 | 81 | 1010.2 |
| 20260509050017 | 56 | 127 | 4.0 | 13.0 | 0.00 | 0.11 | 0.00 | 81 | 1010.1 |
| 20260509045036 | 56 | 125 | 5.0 | 12.0 | 0.00 | 0.11 | 0.00 | 81 | 1010.0 |
| 20260509044037 | 56 | 120 | 4.0 | 13.0 | 0.00 | 0.11 | 0.00 | 81 | 1009.8 |
| 20260509043016 | 56 | 126 | 4.0 | 13.0 | 0.00 | 0.11 | 0.00 | 81 | 1009.4 |
| 20260509042017 | 56 | 118 | 7.0 | 15.0 | 0.00 | 0.11 | 0.00 | 81 | 1009.6 |
| 20260509041016 | 56 | 130 | 7.0 | 15.0 | 0.00 | 0.11 | 0.00 | 81 | 1009.1 |
| 20260509040037 | 56 | 129 | 5.0 | 14.0 | 0.00 | 0.11 | 0.00 | 81 | 1009.7 |
| 20260509035036 | 56 | 132 | 5.0 | 9.0 | 0.00 | 0.11 | 0.00 | 81 | 1010.1 |
| 20260509034016 | 56 | 121 | 4.0 | 9.0 | 0.00 | 0.11 | 0.00 | 81 | 1010.7 |
| 20260509033016 | 56 | 111 | 2.0 | 7.0 | 0.00 | 0.11 | 0.00 | 81 | 1010.7 |
| 20260509032037 | 56 | 82 | 3.0 | 10.0 | 0.00 | 0.11 | 0.00 | 80 | 1010.7 |
| 20260509031016 | 56 | 112 | 2.0 | 7.0 | 0.00 | 0.11 | 0.00 | 81 | 1010.6 |
| 20260509030017 | 56 | 226 | 3.0 | 8.0 | 0.00 | 0.11 | 0.00 | 81 | 1010.6 |
| 20260509025017 | 56 | 102 | 3.0 | 8.0 | 0.00 | 0.11 | 0.00 | 80 | 1010.4 |
| 20260509024017 | 56 | 110 | 4.0 | 10.0 | 0.00 | 0.11 | 0.00 | 80 | 1010.2 |
| 20260509023017 | 56 | 105 | 4.0 | 9.0 | 0.00 | 0.11 | 0.00 | 80 | 1010.1 |
| 20260509022037 | 56 | 221 | 2.0 | 6.0 | 0.00 | 0.11 | 0.00 | 81 | 1010.3 |
| 20260509021056 | 56 | 105 | 1.0 | 3.0 | 0.00 | 0.11 | 0.00 | 81 | 1010.3 |
| 20260509020016 | 56 | 107 | 2.0 | 9.0 | 0.00 | 0.11 | 0.00 | 80 | 1010.3 |
| 20260509015017 | 56 | 119 | 2.0 | 7.0 | 0.00 | 0.11 | 0.00 | 81 | 1010.4 |
| 20260509014016 | 56 | 48 | 2.0 | 8.0 | 0.00 | 0.11 | 0.00 | 81 | 1010.3 |
| 20260509013016 | 56 | 79 | 2.0 | 6.0 | 0.00 | 0.11 | 0.00 | 81 | 1010.3 |
| 20260509012016 | 57 | 335 | 1.0 | 9.0 | 0.00 | 0.11 | 0.00 | 80 | 1010.4 |
| 20260509011037 | 57 | 118 | 3.0 | 9.0 | 0.00 | 0.11 | 0.00 | 80 | 1010.4 |
| 20260509010017 | 57 | 116 | 3.0 | 11.0 | 0.00 | 0.11 | 0.00 | 80 | 1010.6 |
| 20260509005016 | 57 | 130 | 5.0 | 8.0 | 0.00 | 0.11 | 0.00 | 81 | 1010.6 |
| 20260509004016 | 57 | 125 | 3.0 | 8.0 | 0.00 | 0.11 | 0.00 | 80 | 1010.8 |
| 20260509003017 | 57 | 127 | 4.0 | 11.0 | 0.00 | 0.11 | 0.00 | 80 | 1010.8 |
| 20260509002016 | 57 | 122 | 5.0 | 10.0 | 0.00 | 0.11 | 0.00 | 79 | 1010.9 |
| 20260509001016 | 57 | 126 | 2.0 | 8.0 | 0.00 | 0.11 | 0.00 | 78 | 1011.0 |
| 20260509000017 | 57 | 134 | 3.0 | 11.0 | 0.00 | 0.11 | 0.11 | 79 | 1011.1 |
| 20260508235016 | 56 | 135 | 2.0 | 7.0 | 0.00 | 0.11 | 0.11 | 82 | 1011.1 |
| 20260508234016 | 55 | 52 | 1.0 | 8.0 | 0.00 | 0.11 | 0.11 | 84 | 1011.0 |
| 20260508233016 | 55 | 59 | 4.0 | 8.0 | 0.00 | 0.11 | 0.11 | 84 | 1011.0 |
| 20260508232016 | 56 | 66 | 4.0 | 9.0 | 0.00 | 0.11 | 0.11 | 84 | 1011.0 |
| 20260508231016 | 56 | 79 | 2.0 | 7.0 | 0.00 | 0.11 | 0.11 | 84 | 1010.8 |
| 20260508230017 | 56 | 77 | 3.0 | 7.0 | 0.00 | 0.11 | 0.11 | 84 | 1010.8 |
| 20260508225016 | 56 | 69 | 3.0 | 9.0 | 0.00 | 0.11 | 0.11 | 83 | 1011.0 |
| 20260508224036 | 57 | 68 | 4.0 | 10.0 | 0.00 | 0.11 | 0.11 | 83 | 1011.3 |
| 20260508223016 | 57 | 66 | 5.0 | 10.0 | 0.00 | 0.11 | 0.11 | 82 | 1011.4 |
| 20260508222016 | 57 | 49 | 5.0 | 10.0 | 0.00 | 0.11 | 0.11 | 82 | 1011.3 |
| 20260508221016 | 57 | 47 | 5.0 | 9.0 | 0.00 | 0.11 | 0.11 | 80 | 1011.3 |
| 20260508220016 | 58 | 50 | 5.0 | 8.0 | 0.00 | 0.11 | 0.11 | 79 | 1011.3 |
| 20260508215016 | 58 | 46 | 4.0 | 7.0 | 0.00 | 0.11 | 0.11 | 79 | 1011.2 |
| 20260508214016 | 58 | 49 | 4.0 | 8.0 | 0.00 | 0.11 | 0.11 | 79 | 1011.2 |
| 20260508213016 | 58 | 50 | 4.0 | 9.0 | 0.00 | 0.11 | 0.11 | 78 | 1011.2 |
| 20260508212016 | 58 | 50 | 3.0 | 7.0 | 0.00 | 0.11 | 0.11 | 76 | 1011.4 |
| 20260508211036 | 58 | 67 | 2.0 | 4.0 | 0.00 | 0.11 | 0.11 | 75 | 1011.2 |
| 20260508210016 | 58 | 53 | 2.0 | 3.0 | 0.00 | 0.11 | 0.11 | 74 | 1011.1 |
| 20260508205016 | 58 | 51 | 3.0 | 5.0 | 0.00 | 0.11 | 0.11 | 73 | 1011.0 |
| 20260508204056 | 59 | 50 | 2.0 | 4.0 | 0.00 | 0.11 | 0.11 | 72 | 1010.8 |
| 20260508203016 | 59 | 49 | 2.0 | 4.0 | 0.00 | 0.11 | 0.11 | 71 | 1010.7 |
| 20260508202016 | 59 | 49 | 3.0 | 6.0 | 0.00 | 0.11 | 0.11 | 71 | 1010.6 |
| 20260508201016 | 59 | 52 | 4.0 | 6.0 | 0.00 | 0.11 | 0.11 | 71 | 1010.5 |
| 20260508200017 | 59 | 47 | 4.0 | 5.0 | 0.00 | 0.11 | 0.11 | 71 | 1010.5 |
| 20260508195056 | 59 | 45 | 3.0 | 5.0 | 0.00 | 0.11 | 0.11 | 71 | 1010.4 |
| 20260508194016 | 60 | 44 | 3.0 | 5.0 | 0.00 | 0.11 | 0.11 | 70 | 1010.2 |
| 20260508193016 | 60 | 44 | 2.0 | 4.0 | 0.00 | 0.11 | 0.11 | 69 | 1010.1 |
| 20260508192016 | 61 | 59 | 1.0 | 4.0 | 0.00 | 0.11 | 0.11 | 68 | 1010.1 |
| 20260508191016 | 61 | 49 | 3.0 | 5.0 | 0.00 | 0.11 | 0.11 | 66 | 1010.0 |
| 20260508190016 | 62 | 37 | 3.0 | 5.0 | 0.00 | 0.11 | 0.11 | 64 | 1010.1 |
| 20260508185016 | 63 | 58 | 2.0 | 4.0 | 0.00 | 0.11 | 0.11 | 63 | 1010.0 |
| 20260508184036 | 63 | 52 | 3.0 | 6.0 | 0.00 | 0.11 | 0.11 | 62 | 1009.9 |
| 20260508183016 | 64 | 66 | 2.0 | 6.0 | 0.00 | 0.11 | 0.11 | 62 | 1010.0 |
| 20260508182017 | 64 | 42 | 4.0 | 6.0 | 0.00 | 0.11 | 0.11 | 60 | 1009.9 |
| 20260508181016 | 64 | 47 | 3.0 | 6.0 | 0.00 | 0.11 | 0.11 | 59 | 1009.9 |
| 20260508180016 | 65 | 48 | 4.0 | 7.0 | 0.00 | 0.11 | 0.11 | 59 | 1009.9 |
| 20260508175017 | 65 | 47 | 3.0 | 7.0 | 0.00 | 0.11 | 0.11 | 57 | 1009.9 |
| 20260508174016 | 65 | 21 | 2.0 | 4.0 | 0.00 | 0.11 | 0.11 | 57 | 1010.0 |
| 20260508173016 | 65 | 46 | 3.0 | 6.0 | 0.00 | 0.11 | 0.11 | 57 | 1010.0 |
| 20260508172016 | 65 | 45 | 0.0 | 3.0 | 0.00 | 0.11 | 0.11 | 57 | 1010.0 |
| 20260508171017 | 65 | 46 | 0.0 | 4.0 | 0.00 | 0.11 | 0.11 | 56 | 1010.0 |
| 20260508170016 | 66 | 46 | 2.0 | 4.0 | 0.00 | 0.11 | 0.11 | 56 | 1010.1 |
| 20260508165017 | 67 | 106 | 1.0 | 5.0 | 0.00 | 0.11 | 0.11 | 53 | 1010.2 |
| 20260508164016 | 67 | 118 | 2.0 | 5.0 | 0.00 | 0.11 | 0.11 | 53 | 1010.3 |
| 20260508163016 | 66 | 119 | 1.0 | 4.0 | 0.00 | 0.11 | 0.11 | 55 | 1010.3 |
| 20260508162016 | 66 | 105 | 1.0 | 5.0 | 0.00 | 0.11 | 0.11 | 54 | 1010.3 |
| 20260508161017 | 66 | 263 | 1.0 | 7.0 | 0.00 | 0.11 | 0.11 | 56 | 1010.3 |
| 20260508160016 | 65 | 302 | 3.0 | 8.0 | 0.00 | 0.12 | 0.11 | 58 | 1010.2 |
| 20260508155016 | 65 | 297 | 4.0 | 7.0 | 0.00 | 0.13 | 0.11 | 58 | 1010.2 |
| 20260508154016 | 64 | 273 | 4.0 | 8.0 | 0.00 | 0.13 | 0.11 | 57 | 1010.2 |
| 20260508153036 | 65 | 272 | 4.0 | 9.0 | 0.00 | 0.14 | 0.11 | 56 | 1010.3 |
| 20260508152017 | 66 | 256 | 4.0 | 8.0 | 0.00 | 0.16 | 0.11 | 55 | 1010.4 |
| 20260508151016 | 65 | 253 | 5.0 | 10.0 | 0.00 | 0.16 | 0.11 | 57 | 1010.5 |
| 20260508150016 | 64 | 257 | 3.0 | 13.0 | 0.00 | 0.16 | 0.11 | 62 | 1010.7 |
| 20260508145016 | 63 | 260 | 3.0 | 6.0 | 0.00 | 0.16 | 0.11 | 69 | 1010.7 |
| 20260508144016 | 62 | 264 | 4.0 | 8.0 | 0.00 | 0.16 | 0.11 | 73 | 1010.8 |
| 20260508143016 | 62 | 245 | 4.0 | 10.0 | 0.00 | 0.16 | 0.11 | 80 | 1010.8 |
| 20260508142037 | 59 | 267 | 4.0 | 7.0 | 0.00 | 0.16 | 0.11 | 91 | 1010.7 |
| 20260508141016 | 58 | 237 | 3.0 | 9.0 | 0.00 | 0.16 | 0.11 | 91 | 1010.7 |
| 20260508140017 | 58 | 259 | 2.0 | 7.0 | 0.00 | 0.16 | 0.11 | 93 | 1010.9 |
| 20260508135017 | 58 | 267 | 2.0 | 5.0 | 0.00 | 0.16 | 0.11 | 91 | 1010.9 |
| 20260508134036 | 58 | 141 | 2.0 | 6.0 | 0.00 | 0.16 | 0.11 | 92 | 1011.0 |
| 20260508133017 | 58 | 97 | 1.0 | 5.0 | 0.00 | 0.17 | 0.11 | 93 | 1011.0 |
| 20260508132017 | 56 | 271 | 1.0 | 3.0 | 0.00 | 0.22 | 0.11 | 92 | 1010.9 |
| 20260508131017 | 57 | 252 | 0.0 | 3.0 | 0.08 | 0.24 | 0.11 | 94 | 1011.1 |
| 20260508130016 | 55 | 311 | 0.0 | 3.0 | 0.09 | 0.24 | 0.11 | 94 | 1011.1 |
| 20260508125016 | 55 | 304 | 2.0 | 6.0 | 0.09 | 0.29 | 0.11 | 93 | 1011.2 |
| 20260508124016 | 55 | 7 | 1.0 | 5.0 | 0.09 | 0.57 | 0.11 | 95 | 1011.3 |